Regional Weather Roundup
Issued by NWS Sioux Falls, SD

Home | Current Version | Previous Version | Text Only | Print | Product List | Glossary On
Versions: 1 2 3 4 5 6 7 8 9 10 11 12 13 14 15 16 17 18 19 20 21 22 23 24 25 26 27 28 29 30 31 32 33 34 35 36 37 38 39 40 41 42 43 44 45 46 47 48 49 50
000
ASUS43 KFSD 250810
RWRFSD

WEATHER ROUNDUP FOR SE SOUTH DAKOTA/SW MINNESOTA/NW IOWA
NATIONAL WEATHER SERVICE SIOUX FALLS SD
300 AM CDT SAT JUN 25 2016

NOTE: "FAIR" INDICATES FEW OR NO CLOUDS BELOW 12,000 FEET WITH NO
SIGNIFICANT WEATHER AND OR OBSTRUCTIONS TO VISIBILITY.


SDZ038>040-050-052>070-250900-
SOUTHEAST SOUTH DAKOTA

CITY           SKY/WX    TMP DP  RH WIND       PRES   REMARKS
BROOKINGS      CLEAR     77  67  71 S17G24    29.78F
CHAMBERLAIN    MOCLDY    82  72  71 S10G17    29.68F
HURON          PTCLDY    78  68  71 S20G32    29.68F
MADISON        FAIR      75  70  83 S15G22    29.80F
MITCHELL       PTCLDY    79  69  71 S17       29.72F
SIOUX FALLS    CLEAR     77  67  71 S14       29.81F
WINNER         FAIR      83  68  60 S17G30    29.67F
YANKTON        CLEAR     77  66  69 S17       29.77F
$$

MNZ071-072-080-081-089-090-097-098-250900-
SOUTHWEST MINNESOTA

CITY           SKY/WX    TMP DP  RH WIND       PRES   REMARKS
FAIRMONT       CLEAR     72  66  83 S14       29.88S
JACKSON        CLEAR     73  68  83 S12G17    29.88S
LUVERNE        CLEAR     73  70  88 S13       29.84F
MARSHALL       PTCLDY    79  72  79 S24G31    29.76F
MONTEVIDEO     CLEAR     73  68  83 S10G20    29.78S
PIPESTONE      CLEAR     77  72  83 S17       29.83S
REDWOOD FALLS  CLEAR     74  67  78 S13       29.80F
TRACY          PTCLDY    78  73  83 S14G24    29.80F
WORTHINGTON    PTCLDY    75  72  90 S16       29.86F
$$

IAZ001>003-012>014-020>022-031-032-NEZ013-014-SDZ071-250900-
NORTHWEST IOWA

CITY           SKY/WX    TMP DP  RH WIND       PRES   REMARKS
CHEROKEE       CLEAR     75  72  90 S9        29.87F
DENISON        PTCLDY    75  72  88 S13G20    29.87F
ESTHERVILLE    CLEAR     72  70  93 S12       29.88F
LE MARS        CLEAR     77  73  88 S13       29.85F
ORANGE CITY    CLEAR     75  72  88 S10       29.86R
SHELDON        CLEAR     75  73  94 S13       29.85S
SIOUX CITY     CLEAR     78  69  73 S13       29.84F
SPENCER        CLOUDY    74  70  87 S9        29.87F
STORM LAKE     PTCLDY    73  72  94 S10       29.90F
$$

ABBREVIATIONS USED IN REMARKS
   TC - TEMPERATURE IN CELSIUS
  WCI - WIND CHILL INDEX
   HX - HEAT INDEX
  VSB - VISIBILITY




USA.gov is the U.S. government's official web portal to all federal, state and local government web resources and services.